Red Bluff, CA

6:41 AM PST on December 11, 2019 (GMT -0800)
Red Bluff Municipal

Weather History for KRBL - October, 2019

Change the Weather History Date:

Wednesday, October 30, 2019

  Actual Average Record
Temperature  
Mean Temperature 57 °F -  
Max Temperature 70 °F 70 °F 89 °F (1966)
Min Temperature 43 °F 46 °F 30 °F (1935)
Degree Days  
Heating Degree Days 8    
Growing Degree Days 7 (Base 50)    
Moisture  
Dew Point 0 °F    
Average Humidity 11    
Maximum Humidity 23    
Minimum Humidity 4    
Precipitation  
Precipitation 0.00 in - - ()
Sea Level Pressure  
Sea Level Pressure 30.20 in    
Wind  
Wind Speed 9 mph (NNW)    
Max Wind Speed 16 mph    
Max Gust Speed -    
Visibility 10 miles    
Events      
Averages and records for this station are not official NWS values.
T = Trace of Precipitation, MM = Missing Value Source: NWS Daily Summary

Daily Weather History Graph

Daily Weather History Graph

Search for Another Location

Airport or City:

Astronomy

Oct. 30, 2019 Rise Set
Actual Time 7:35 AM PDT 6:08 PM PDT
Civil Twilight 7:07 AM PDT 6:36 PM PDT
Nautical Twilight 6:35 AM PDT 7:08 PM PDT
Astronomical Twilight 6:04 AM PDT 7:40 PM PDT
Moon 10:25 AM PDT (10/30) 8:20 PM PDT (10/30)
Length of Visible Light 11h 28m
Length of Day
10h 32m
Waxing Crescent, 9% of the Moon is Illuminated
Oct 30
Waxing Crescent
Nov 4
First Quarter
Nov 12
Full
Nov 19
Last Quarter
Nov 26
New

Hourly Weather History & Observations

Time (PDT) Temp. Windchill Dew Point Humidity Pressure Visibility Wind Dir Wind Speed Gust Speed Precip Events Conditions
12:54 AM 52.0 °F - -4.0 °F 10% 30.13 in 10.0 mi NNW 12.7 mph - N/A   Clear
1:54 AM 50.0 °F - -2.9 °F 11% 30.14 in 10.0 mi North 10.4 mph - N/A   Clear
2:54 AM 48.9 °F - -2.9 °F 12% 30.14 in 10.0 mi North 11.5 mph - N/A   Clear
3:54 AM 50.0 °F - -2.9 °F 11% 30.14 in 10.0 mi NNW 16.1 mph - N/A   Clear
4:54 AM 48.0 °F - -2.9 °F 12% 30.15 in 10.0 mi North 11.5 mph - N/A   Clear
5:54 AM 48.0 °F - -2.9 °F 12% 30.16 in 10.0 mi NNW 10.4 mph - N/A   Clear
6:54 AM 46.9 °F - -4.0 °F 12% 30.18 in 10.0 mi NNW 10.4 mph - N/A   Clear
7:54 AM 44.1 °F 39.0 °F -2.0 °F 15% 30.19 in 10.0 mi NNW 9.2 mph - N/A   Clear
8:54 AM 46.0 °F - 1.9 °F 16% 30.22 in 10.0 mi Calm Calm - N/A   Clear
9:54 AM 54.0 °F - -0.0 °F 11% 30.23 in 10.0 mi North 9.2 mph - N/A   Clear
10:54 AM 57.9 °F - -0.0 °F 10% 30.23 in 10.0 mi North 12.7 mph - N/A   Clear
11:54 AM 61.0 °F - -0.9 °F 8% 30.24 in 10.0 mi NNW 10.4 mph - N/A   Clear
12:54 PM 64.9 °F - -2.9 °F 7% 30.22 in 10.0 mi Variable 5.8 mph - N/A   Clear
1:54 PM 66.9 °F - -2.9 °F 6% 30.19 in 10.0 mi North 5.8 mph - N/A   Clear
2:54 PM 69.1 °F - -4.0 °F 5% 30.18 in 10.0 mi North 5.8 mph - N/A   Clear
3:54 PM 69.1 °F - -4.0 °F 5% 30.18 in 10.0 mi Variable 5.8 mph - N/A   Clear
4:54 PM 69.1 °F - -2.0 °F 6% 30.19 in 10.0 mi NW 3.5 mph - N/A   Clear
5:54 PM 64.9 °F - 5.0 °F 9% 30.19 in 10.0 mi Calm Calm - N/A   Clear
6:54 PM 55.9 °F - 9.0 °F 15% 30.19 in 10.0 mi WNW 4.6 mph - N/A   Clear
7:54 PM 53.1 °F - 5.0 °F 14% 30.21 in 10.0 mi WNW 8.1 mph - N/A   Clear
8:54 PM 46.9 °F - 8.1 °F 21% 30.22 in 10.0 mi NNW 3.5 mph - N/A   Clear
9:54 PM 45.0 °F 41.8 °F 7.0 °F 21% 30.24 in 10.0 mi NW 5.8 mph - N/A   Clear
10:54 PM 44.1 °F 42.5 °F 8.1 °F 23% 30.25 in 10.0 mi North 3.5 mph - N/A   Clear
11:54 PM 43.0 °F 39.5 °F 6.1 °F 22% 30.26 in 10.0 mi NNW 5.8 mph - N/A   Clear